Content
SEND FEEDBACK

Daily
Averages
Monthly
Summary
United States of America

PUT IN BAY, OHIO


Home > North America > United States > Ohio
Elevation: 561 feet     Latitude: 41 39N     Longitude: 082 48W

WEATHER
 
SELECT A DAY
Number of Records: 122,475;   Date Range: 12/10/00 - 7/11/14
 
SHARE

PRINT THIS DATA

[ ← Previous Day ]
WEATHER ALMANAC - AUGUST 28, 2013
[ Next Day → ]
[ °C ]   °F
Weather ElementAverageHighLow
Temperature76.6 °F80.8 °F (6:00 pm)70.5 °F (11:00 pm)
Dewpoint70.6 °F73.2 °F (2:00 am)67.1 °F (11:00 pm)
Humidity81.4 %91 % (7:00 am)65 % (6:00 pm)
Barometer29.84 in29.96 in (11:00 pm)29.76 in (4:00 am)
Wind Speed5.8 mph12.7 mph (4:00 am)
Wind Gust20.7 mph (4:00 am)
Weather ElementAverage
Wind DirectionSE (134.4 °)

Weather ElementTotal
Precipitation0.06 in
Cooling Degree Days10.7 (Base 65)
Growing Degree Days25.7 (Base 50)
Averaged from 27 records on August 28, 2013
WEATHER CONDITIONS BREAKOUT
WIND DIRECTION BREAKOUT
WEATHER BY HOUR - AUGUST 28, 2013
[ °C ]   °F
Local TimeTemperatureDewpointHumidityBarometerVisibilityWind DirectionWind SpeedGust SpeedPrecipitationEventsConditions
1:00 AM74.7 °F71.1 °F88 %29.82 inSSW (210°)5.8 mph0.05 in
2:00 AM76.0 °F73.0 °F88 %29.79 inSSW (200°)6.9 mph
2:00 AM76.3 °F73.2 °F90 %29.79 inSSW (200°)6.9 mph
3:00 AM75.9 °F72.0 °F87 %29.77 inSW (230°)8.1 mph0.01 in
4:00 AM76.6 °F71.6 °F84 %29.76 inWSW (250°)12.7 mph20.7 mph
5:00 AM75.7 °F71.2 °F86 %29.77 inWest (270°)10.4 mph
6:00 AM74.8 °F71.6 °F90 %29.77 inWest (270°)6.9 mph
7:00 AM74.5 °F71.8 °F91 %29.78 inWest (280°)6.9 mph
8:00 AM75.0 °F72.0 °F87 %29.79 inNW (310°)3.5 mph
8:00 AM75.0 °F71.8 °F90 %29.79 inNW (310°)3.5 mph
9:00 AM76.1 °F72.3 °F88 %29.81 inNW (310°)4.6 mph
10:00 AM77.0 °F72.1 °F85 %29.81 inNorth (350°)3.5 mph
11:00 AM77.5 °F72.0 °F83 %29.82 inNNE (20°)5.8 mph
12:00 PM78.4 °F71.8 °F80 %29.83 inNNE (20°)5.8 mph
1:00 PM78.1 °F70.5 °F77 %29.84 inNNE (20°)5.8 mph
2:00 PM80.0 °F71.0 °F66 %29.86 inNNE (20°)8.1 mph
2:00 PM79.9 °F70.7 °F73 %29.86 inNNE (20°)8.1 mph
3:00 PM80.2 °F70.7 °F73 %29.86 inNNE (30°)6.9 mph
4:00 PM79.0 °F70.5 °F75 %29.87 inNE (50°)8.1 mph
5:00 PM78.6 °F70.5 °F76 %29.88 inNNE (20°)4.6 mph
6:00 PM80.8 °F68.0 °F65 %29.88 inNE (40°)5.8 mph
7:00 PM79.5 °F68.5 °F69 %29.89 inNE (40°)4.6 mph
8:00 PM76.0 °F69.0 °F72 %29.91 inNNE (20°)2.3 mph
8:00 PM75.9 °F68.5 °F78 %29.91 inNNE (20°)2.3 mph
9:00 PM72.9 °F67.6 °F84 %29.92 inNE (40°)2.3 mph
10:00 PM72.0 °F67.3 °F85 %29.95 inNE (40°)3.5 mph
11:00 PM70.5 °F67.1 °F89 %29.96 inNE (40°)2.3 mph
Hourly data recorded from CXHA, located miles away from Put In Bay, Ohio







STORIES FROM OUR PARTNERS